UNISAT 6

Satellite information

Favourite Embed

Satellite Type and Status

PAYLOADIN ORBIT

Key statistics

Satellite UNISAT 6 at a glance.

Uptime

4147

Days in orbit

Revolutions

≈ 14.9

Per day

Orbit

SSO

Sun Synchronous Orbit

Inclination

97.8

Latest

Satellite identification and parameters

Extended collection of information and parameters for UNISAT 6.

Object identification

Identified? True

Debris? False

Object name: UNISAT 6

International designator: 2014-033C

Object number (NORAD): 40012

Object ID (CCSDS): 40012

Country: ITALY (IT)

Current information (Y/N): Y

RCS size: MEDIUM

Orbital parameters

Period: 96.884 minutes

Inclination: 97.7599 deg

SMA: 6987.599 km

Apoapsis: 642.82 km

Periapsis: 576.107 km

RAAN: 91.5255 deg

Eccentricy: 0.00477367

Argument of periapsis: 119.5179 deg

Mean anomaly: 241.081 deg

Mean motion: 14.86314871 rev/day

Mean motion (dot): 0.00005078 rev/day2

B* drag term: 0.00057084198 1/REarth

Two-line elements (TLE)

Creation date: Oct. 26, 2025, 2:54 a.m.

Reference frame: TEME

Reference center: EARTH

Epoch: Oct. 25, 2025, 10:56 p.m. UTC

TLE line 0: 0 UNISAT 6

TLE line 1: 1 40012U 14033C 25298.95597751 .00005078 00000-0 57084-3 0 9999

TLE line 2: 2 40012 97.7599 91.5255 0047737 119.5179 241.0810 14.86314871611347

Live tracking on map

Real-time ground track for satellite UNISAT 6.

In-orbit conjunctions

There are no conjunctions computed for UNISAT 6, at the moment. Check back to stay up to date, as we update our databases every day.

Go to all conjunctions

Associated space launch

UNISAT 6 was lifted into orbit during the mission ‘Dnepr 1 | Multipayload, 37 satellites.’, on board a Dnepr space rocket.

The launch took place on June 19, 2014, 7:11 p.m. from 370/13.

For more information about the launch, click the button.

Launch to space Dnepr 1 | Multipayload, 37 satellites.
Dnepr 1 | Multipayload, 37 satellites.

Agency: N/A

Status: Launch Successful

Launch date: June 19, 2014, 7:11 p.m. UTC

Rocket: Dnepr

Launch pad: 370/13

Location: Dombarovskiy, Russian Federation

...

Latest news about this satellite

There are no fresh news available about this satellite. Check back as we update our databases every day.


Newsletter sign-up

Weekly statistics, charts and insights to help you stay on top of the space industry.